sat.trackr.live / text

‹ back to catalog

STARLINK-5707

NORAD 56879 · 2023-083D

PAYLOAD ACTIVE UNKNOWN

§ Identity

Operator
Country
US
Launch date
2023-06-12
Launch site
AFETR
Launch vehicle
Mass (kg)
RCS (m²)

Purposes: comms

External: N2YO · Heavens-Above · Gunter

§ Orbital elements

Epoch: 2026-09-19T19:18:23.019840Z

Period
94.27 min
Inclination
43.0028°
Eccentricity
0.0001915
Mean motion
15.27578940 rev/d
Perigee alt
481.7 km
Apogee alt
484.4 km
Semi-major
6,861.2 km
B*
2.2512e-5
RAAN
69.2864°
Arg perigee
257.2722°
Mean anomaly
102.7916°
Rev number
18,131

§ Raw data

STARLINK-57071 56879U 23083D   26262.80443310  .00000357  00000+0  22512-4 0  99922 56879  43.0028  69.2864 0001915 257.2722 102.7916 15.27578940181310

JSON: /api/v1/satellites/56879 · /tle

For live sub-satellite position, see the globe view (requires WebGL).

§ Visibility from observer

Set your observer location to see the next 7 days of passes ≥ 10°. The values pass through the URL so the page stays shareable.

No JS? Fill the form by hand. The geolocation button needs JavaScript.